Location: Newark
(42.8481°N, 0.4872°E)
Time: 22:54:39
(UTC+00:00)

SR - Pass Details

Date: 02 November 2020
Orbit: 579 x 876 km, 66.7° (Epoch: 29 November)

Event Time Altitude Azimuth Distance (km) Brightness Sun altitude
Rises 23:13:42 0° 156° (SSE) 2,780 - -61.6°
Reaches altitude 10° 23:17:39 10° 118° (ESE) 1,896 - -61.8°
Maximum altitude 23:18:40 11° 104° (ESE) 1,853 - -61.8°
Drops below altitude 10° 23:19:42 10° 90° (E) 1,912 - -61.9°
Sets 23:23:45 0° 53° (NE) 2,863 - -62.0°
